When you browse on this site, cookies collect data to enhance your experience and personalize the content and advertising you see.
Visit our Privacy Policy to learn more. By continuing to use the site, you agree to this use of cookies and data.
  • En España
  • Lista de países
  • Para 7 días
  • Temperatura del agua
  • Mapa Satelital
  • El tiempo en el mapa
  • Informadores
  • user-avatar
    Iniciar sesión

    Tiempo cada hora Algiers

    Hoy, 23 Julio, Martes

    Tiempo Temperatura Precipitaciones Viento Presión Humedad
    00:00 +29°C° 0 mm 4 mps 750 mmHg 54%
    01:00 +29°C° 0 mm 4 mps 749 mmHg 53%
    02:00 +29°C° 0 mm 4 mps 749 mmHg 51%
    03:00 +29°C° 0 mm 4 mps 748 mmHg 49%
    04:00 +29°C° 0 mm 4 mps 749 mmHg 48%
    05:00 +29°C° 0 mm 4 mps 749 mmHg 46%
    06:00 +30°C° 0 mm 5 mps 749 mmHg 45%
    07:00 +32°C° 0 mm 5 mps 749 mmHg 42%
    08:00 +33°C° 0 mm 5 mps 749 mmHg 39%
    09:00 +35°C° 0 mm 5 mps 749 mmHg 36%
    10:00 +35°C° 0 mm 5 mps 749 mmHg 36%
    11:00 +36°C° 0 mm 6 mps 749 mmHg 36%
    12:00 +36°C° 0 mm 6 mps 748 mmHg 36%
    13:00 +36°C° 0 mm 7 mps 748 mmHg 36%
    14:00 +36°C° 0 mm 7 mps 748 mmHg 37%
    15:00 +36°C° 0 mm 7 mps 748 mmHg 37%
    16:00 +35°C° 0 mm 7 mps 747 mmHg 39%
    17:00 +34°C° 0 mm 7 mps 747 mmHg 42%
    18:00 +33°C° 0 mm 7 mps 747 mmHg 44%
    19:00 +33°C° 0 mm 7 mps 747 mmHg 46%
    20:00 +32°C° 0 mm 6 mps 747 mmHg 48%
    21:00 +30°C° 0 mm 6 mps 747 mmHg 50%
    22:00 +30°C° 0 mm 5 mps 747 mmHg 50%
    23:00 +30°C° 0 mm 5 mps 747 mmHg 49%

    Mañana, 24 Julio, Miércoles

    Tiempo Temperatura Precipitaciones Viento Presión Humedad
    00:00 +30°C° 0 mm 4 mps 747 mmHg 49%
    01:00 +30°C° 0 mm 4 mps 747 mmHg 49%
    02:00 +30°C° 0 mm 4 mps 747 mmHg 48%
    03:00 +29°C° 0 mm 4 mps 746 mmHg 47%
    04:00 +30°C° 0 mm 4 mps 747 mmHg 45%
    05:00 +30°C° 0 mm 4 mps 747 mmHg 44%
    06:00 +30°C° 0 mm 4 mps 747 mmHg 42%
    07:00 +33°C° 0 mm 4 mps 747 mmHg 39%
    08:00 +34°C° 0 mm 4 mps 747 mmHg 36%
    09:00 +35°C° 0 mm 4 mps 748 mmHg 34%
    10:00 +35°C° 0 mm 5 mps 747 mmHg 37%
    11:00 +35°C° 0 mm 5 mps 747 mmHg 40%
    12:00 +35°C° 0 mm 6 mps 747 mmHg 43%
    13:00 +35°C° 0 mm 6 mps 747 mmHg 45%
    14:00 +34°C° 0 mm 6 mps 747 mmHg 46%
    15:00 +34°C° 0 mm 6 mps 746 mmHg 48%
    16:00 +33°C° 0 mm 5 mps 746 mmHg 50%
    17:00 +32°C° 0 mm 5 mps 746 mmHg 53%
    18:00 +30°C° 0 mm 5 mps 746 mmHg 55%
    19:00 +30°C° 0 mm 5 mps 747 mmHg 57%
    20:00 +29°C° 0 mm 4 mps 747 mmHg 59%
    21:00 +29°C° 0 mm 4 mps 747 mmHg 61%
    22:00 +28°C° 0 mm 4 mps 747 mmHg 61%
    23:00 +28°C° 0 mm 3 mps 747 mmHg 62%

    Pasado mañana, 25 Julio, Jueves

    Tiempo Temperatura Precipitaciones Viento Presión Humedad
    00:00 +28°C° 0 mm 3 mps 746 mmHg 62%
    01:00 +28°C° 0 mm 3 mps 746 mmHg 62%
    02:00 +28°C° 0 mm 3 mps 746 mmHg 62%
    03:00 +28°C° 0 mm 3 mps 746 mmHg 62%
    04:00 +28°C° 0 mm 3 mps 746 mmHg 62%
    05:00 +28°C° 0 mm 2 mps 746 mmHg 62%
    06:00 +28°C° 0 mm 2 mps 747 mmHg 62%
    07:00 +29°C° 0 mm 3 mps 747 mmHg 58%
    08:00 +31°C° 0 mm 3 mps 747 mmHg 55%
    09:00 +33°C° 0 mm 3 mps 747 mmHg 51%
    10:00 +33°C° 0 mm 3 mps 747 mmHg 50%
    11:00 +33°C° 0 mm 3 mps 747 mmHg 49%
    12:00 +34°C° 0 mm 3 mps 747 mmHg 48%
    13:00 +34°C° 0 mm 3 mps 747 mmHg 49%
    14:00 +34°C° 0 mm 3 mps 746 mmHg 49%
    15:00 +34°C° 0 mm 3 mps 746 mmHg 49%
    16:00 +33°C° 0 mm 3 mps 746 mmHg 52%
    17:00 +31°C° 0 mm 3 mps 746 mmHg 55%
    18:00 +31°C° 0 mm 3 mps 746 mmHg 57%
    19:00 +30°C° 0 mm 2 mps 746 mmHg 59%
    20:00 +29°C° 0 mm 2 mps 747 mmHg 60%
    21:00 +29°C° 0 mm 2 mps 747 mmHg 62%
    22:00 +29°C° 0 mm 2 mps 747 mmHg 61%
    23:00 +29°C° 0 mm 1 mps 747 mmHg 59%

    26 Julio, Viernes

    Tiempo Temperatura Precipitaciones Viento Presión Humedad
    00:00 +29°C° 0 mm 1 mps 746 mmHg 58%
    01:00 +29°C° 0 mm 1 mps 746 mmHg 57%
    02:00 +29°C° 0 mm 1 mps 746 mmHg 56%
    03:00 +29°C° 0 mm 1 mps 745 mmHg 55%
    04:00 +29°C° 0 mm 2 mps 745 mmHg 52%
    05:00 +29°C° 0 mm 2 mps 745 mmHg 50%
    06:00 +30°C° 0 mm 2 mps 745 mmHg 47%
    07:00 +31°C° 0 mm 2 mps 746 mmHg 43%
    08:00 +34°C° 0 mm 2 mps 746 mmHg 39%
    09:00 +35°C° 0 mm 2 mps 746 mmHg 34%
    10:00 +35°C° 0 mm 2 mps 746 mmHg 37%
    11:00 +35°C° 0 mm 3 mps 745 mmHg 41%
    12:00 +35°C° 0 mm 4 mps 745 mmHg 44%
    13:00 +34°C° 0 mm 4 mps 745 mmHg 46%
    14:00 +33°C° 0 mm 4 mps 745 mmHg 49%
    15:00 +33°C° 0 mm 4 mps 744 mmHg 52%
    16:00 +31°C° 0 mm 3 mps 744 mmHg 52%
    17:00 +31°C° 0 mm 2 mps 744 mmHg 53%
    18:00 +30°C° 0 mm 2 mps 744 mmHg 54%
    19:00 +30°C° 0 mm 1 mps 744 mmHg 53%
    20:00 +30°C° 0 mm 1 mps 744 mmHg 53%
    21:00 +30°C° 0 mm 1 mps 744 mmHg 52%
    22:00 +30°C° 0 mm 2 mps 744 mmHg 54%
    23:00 +29°C° 0 mm 3 mps 744 mmHg 55%

    27 Julio, Sábado

    Tiempo Temperatura Precipitaciones Viento Presión Humedad
    00:00 +29°C° 0 mm 4 mps 743 mmHg 57%
    01:00 +29°C° 0 mm 3 mps 743 mmHg 58%
    02:00 +28°C° 0 mm 3 mps 743 mmHg 60%
    03:00 +28°C° 0 mm 2 mps 742 mmHg 61%
    04:00 +28°C° 0 mm 2 mps 743 mmHg 57%
    05:00 +28°C° 0 mm 2 mps 743 mmHg 53%
    06:00 +29°C° 0 mm 3 mps 743 mmHg 49%
    07:00 +30°C° 0 mm 4 mps 743 mmHg 45%
    08:00 +32°C° 0 mm 6 mps 744 mmHg 40%
    09:00 +33°C° 0 mm 7 mps 744 mmHg 36%
    10:00 +33°C° 0 mm 8 mps 744 mmHg 37%
    11:00 +33°C° 0 mm 8 mps 744 mmHg 38%
    12:00 +33°C° 0 mm 8 mps 744 mmHg 39%
    13:00 +32°C° 0 mm 8 mps 744 mmHg 43%
    14:00 +31°C° 0 mm 8 mps 743 mmHg 47%
    15:00 +31°C° 0 mm 8 mps 743 mmHg 51%
    16:00 +29°C° 0 mm 6 mps 743 mmHg 53%
    17:00 +28°C° 0 mm 5 mps 743 mmHg 54%
    18:00 +27°C° 0 mm 4 mps 744 mmHg 56%
    19:00 +27°C° 0 mm 3 mps 744 mmHg 55%
    20:00 +27°C° 0 mm 2 mps 744 mmHg 54%
    21:00 +26°C° 0 mm 1 mps 745 mmHg 54%
    22:00 +26°C° 0 mm 1 mps 745 mmHg 57%
    23:00 +25°C° 0 mm 2 mps 745 mmHg 60%

    28 Julio, Domingo

    Tiempo Temperatura Precipitaciones Viento Presión Humedad
    00:00 +25°C° 0 mm 2 mps 745 mmHg 63%
    01:00 +25°C° 0 mm 2 mps 745 mmHg 63%
    02:00 +24°C° 0 mm 2 mps 744 mmHg 63%
    03:00 +24°C° 0 mm 2 mps 744 mmHg 62%
    04:00 +25°C° 0 mm 2 mps 744 mmHg 58%
    05:00 +25°C° 0 mm 1 mps 745 mmHg 53%
    06:00 +26°C° 0 mm 1 mps 745 mmHg 49%
    07:00 +27°C° 0 mm 1 mps 745 mmHg 46%
    08:00 +28°C° 0 mm 2 mps 745 mmHg 43%
    09:00 +29°C° 0 mm 2 mps 745 mmHg 40%
    10:00 +29°C° 0 mm 2 mps 745 mmHg 40%
    11:00 +30°C° 0 mm 2 mps 745 mmHg 41%
    12:00 +30°C° 0 mm 3 mps 745 mmHg 41%
    13:00 +30°C° 0 mm 3 mps 745 mmHg 43%
    14:00 +30°C° 0 mm 4 mps 745 mmHg 45%
    15:00 +30°C° 0 mm 4 mps 744 mmHg 48%
    16:00 +29°C° 0 mm 4 mps 744 mmHg 52%
    17:00 +29°C° 0 mm 4 mps 744 mmHg 57%
    18:00 +28°C° 0 mm 4 mps 744 mmHg 62%
    19:00 +28°C° 0 mm 4 mps 745 mmHg 64%
    20:00 +27°C° 0 mm 3 mps 745 mmHg 67%
    21:00 +27°C° 0 mm 3 mps 746 mmHg 70%
    22:00 +26°C° 0 mm 3 mps 746 mmHg 69%
    23:00 +26°C° 0 mm 3 mps 746 mmHg 68%
    Mostrar más